DECAYED

OBJECT B, 59052 (Decayed)

Orbit data source: Space-Track

You're viewing an Uncataloged Satellite

Recently launched and/or uncataloged satellites may have evolving metadata. Metadata may include but not limited to: Owner, Maufacturer, Bus, Motor, and Mission.

OBJECT B, 59052 was a satellite in LEO that was launched on Thu, 29 Feb 2024 UTC via a SOYUZ-2-1B launch vehicle from the Vostochny Cosmodrome (VOSTO). Unknown objects in Earth's orbit typically refer to objects detected orbiting the Earth but have not yet been identified or cataloged. These objects could be anything from previously untracked satellites, spent rocket stages, debris from satellite collisions, or even natural meteoroids temporarily captured by Earth's gravity. This object's orbit decayed before it could be identified.

Not visible in the next 10 days
Identifier
59052, 2024-039B
Orbit
Decayed
Country
Flag of TBDTBD
Related business
Manufacturer
Sputniks
Mission
Decayed Commercial Communications
Bus & Motor
CUBESAT 3U?, Unknown motor
Mass
3 kg wet, 3 kg dry
Launch date (UTC)
2024-02-29 (2 years ago)
Launch vehicle
SOYUZ-2-1B
Launch site
Vostochny Cosmodrome (VOSTO)
Object type
Unknown
Shape & HBR
Box, 0.1 m
Radar Cross Section
0.035 m², Medium (>0.1 m² and < 1m²)

Expand to show TLE details & history
Last TLE update: 1 year ago

TLE from 1 year ago
0 OBJECT B
1 59052U 24039B   25126.87683107  .06649241  25553-5  10785-2 0  9995
2 59052  97.3937 103.4145 0008017 203.3660 156.7273 16.33558095 66711
Epoch: 2025-05-06T21:02Z
TLE epoch observation values (Epoch: 2025-05-06T21:02:38.204Z)
Latitude
-0°
Longitude
-77.21442°
Altitude
191.072 km
Speed
7.789 km/s
True Right ascension
06h 53m 39s
True Declination
0° 00' 00"
Sunlit
Object was in daylight at epoch
Visualization orbit readout
Latitude
Unknown
Longitude
Unknown
Altitude
Unknown
Speed
Unknown
Apparent Right ascension
Unknown
Apparent Declination
Unknown
Sunlit
N/A
Visualization observer readout
Local Sidereal Time
07:55:53
Azimuth
Unknown
Elevation
Unknown
Doppler factor
Unknown
Orbital elements
Apogee altitude
185.068 km
Perigee altitude
174.553 km
Semi-major axis
6,557.948 km
Eccentricity
0.0008
Inclination
97.3937°
RAAN
103.4145°
Arg. of periapsis
203.366°
True anomaly
156.76356°
Mean anomaly
156.7273°
Eccentric anomaly
156.74544°
Mean motion
4.08687 °/min
Orbital period
88.09 mins
BSTAR
0.0010785
Loading maneuver chart data...
Computing Atmospheric mass density...
Loading historical data...
Loading historical data...
Loading historical data...
Loading historical data...
Loading historical data...
Loading historical data...
Loading historical data...

Documentation

Showing up to 5 results
|